Simultaneous Nadir Overpasses (SNOs) Predictions

Prediction of SNOs between AQUA and METOP-B Satellite Orbit:

Table of predicted SNOs for the next 14.0 days since TLE Epoch: 5/8/2015
Index Date (AQUA) Time (AQUA) Lat,Lon (AQUA) SZA (AQUA ) Date (METOP-B) Time (METOP-B) Lat,Lon (METOP-B) SZA (METOP-B ) Distance(km) Time Diff (sec)
1 05/10/2015 06:40:19 73.54, 75.00 55.94 05/10/2015 06:39:08 73.50, 74.13 55.93 27.97 71
2 05/10/2015 07:29:50 -73.81,-117.94 123.78 05/10/2015 07:29:44 -73.79,-117.85 123.80 3.53 6
3 05/10/2015 08:19:18 73.85, 49.60 56.26 05/10/2015 08:20:22 73.87, 49.67 56.27 2.84 64
4 05/13/2015 02:14:34 73.72, 141.06 55.41 05/13/2015 02:13:24 73.74, 141.11 55.44 2.95 70
5 05/13/2015 03:04:01 -73.78, -51.42 124.54 05/13/2015 03:04:05 -73.79, -51.45 124.53 1.57 4
6 05/13/2015 03:53:30 73.88, 116.00 55.56 05/13/2015 03:54:43 73.87, 116.08 55.54 2.56 73
7 05/15/2015 21:48:45 73.73,-152.51 54.74 05/15/2015 21:47:45 73.73,-152.50 54.75 0.41 60
8 05/15/2015 22:38:12 -73.78, 15.02 125.21 05/15/2015 22:38:26 -73.78, 14.94 125.21 2.26 14
9 05/15/2015 23:27:48 74.25,-178.40 55.28 05/15/2015 23:28:56 74.25,-176.56 55.23 55.50 68
10 05/18/2015 17:22:54 73.73, -86.05 54.10 05/18/2015 17:22:05 73.71, -86.12 54.10 2.86 49
11 05/18/2015 18:12:22 -73.83, 81.37 125.80 05/18/2015 18:12:45 -73.81, 81.43 125.82 2.99 23
12 05/21/2015 12:57:04 73.76, -19.67 53.55 05/21/2015 12:56:25 73.74, -19.65 53.53 3.00 39
13 05/21/2015 13:46:31 -73.81, 147.86 126.41 05/21/2015 13:47:05 -73.83, 147.90 126.39 2.65 34




NCC Satellite Simultaneous Nadir Overpasses (SNOs) Prediction Service
